Date,TemperatureHighF,TemperatureAvgF,TemperatureLowF,DewpointHighF,DewpointAvgF,DewpointLowF,HumidityHigh,HumidityAvg,HumidityLow,PressureMaxIn,PressureMinIn,WindSpeedMaxMPH,WindSpeedAvgMPH,GustSpeedMaxMPH,PrecipitationSumIn
2013-1-1,46,43,40,34,30,26,70,61,53,23.24,23.24,13,2,13,0.00
2013-1-2,41,38,32,32,25,18,70,61,52,23.24,23.24,17,3,17,0.00
2013-1-3,41,34,29,26,21,18,76,60,51,32.45,23.24,12,1,12,0.00
2013-1-4,46,36,27,28,24,21,80,62,47,32.45,32.45,18,2,18,0.00
2013-1-5,48,39,32,34,26,21,76,58,45,32.45,32.45,19,2,19,0.00
2013-1-6,54,45,32,36,33,29,88,64,47,32.45,32.45,18,2,18,0.00
2013-1-7,47,43,31,34,31,26,81,62,52,32.45,23.24,18,3,18,0.00
2013-1-8,57,40,30,39,32,25,86,74,51,31.30,23.24,11,1,11,0.00
2013-1-9,54,42,34,44,36,30,88,81,48,32.45,21.74,14,1,14,0.00
2013-1-10,58,51,44,36,34,31,63,52,41,32.45,23.31,17,3,17,0.00
2013-1-11,46,43,38,42,37,31,93,79,60,31.69,27.12,4,0,9,0.03
2013-1-12,52,46,43,48,44,41,94,92,83,32.44,22.52,6,1,6,0.00
2013-1-13,56,50,44,55,48,42,96,95,94,31.99,23.24,7,1,7,0.01
2013-1-14,62,55,42,60,50,38,96,83,65,23.79,23.24,20,3,20,0.10
2013-1-15,43,42,39,40,39,36,95,90,85,23.24,23.24,11,2,11,0.72
2013-1-16,43,40,37,41,37,35,93,91,89,23.24,23.24,14,2,14,0.23
2013-1-17,46,43,41,43,37,32,93,80,60,32.45,23.24,14,2,14,0.01
2013-1-18,41,37,33,33,25,18,77,61,45,30.35,23.28,27,4,27,0.01
2013-1-19,54,42,33,35,30,24,76,63,46,23.28,23.28,19,4,19,0.00
2013-1-20,61,48,39,38,30,18,69,50,30,23.28,23.28,24,4,24,0.00
2013-1-21,48,39,32,33,24,17,62,54,44,23.28,23.28,28,3,28,0.00
2013-1-22,32,24,20,17,6,2,56,47,37,23.28,23.28,30,7,30,0.00
2013-1-23,29,23,14,20,8,4,77,52,39,23.28,23.28,15,2,15,0.00
2013-1-24,28,24,20,22,15,8,92,68,43,23.28,23.28,25,4,25,0.01
2013-1-25,26,23,21,20,11,6,83,62,48,23.28,23.28,15,2,15,0.00
2013-1-26,36,30,24,28,23,19,82,76,63,23.28,23.28,13,2,13,0.01
2013-1-27,42,33,28,26,23,20,83,68,50,23.28,23.28,11,1,11,0.00
2013-1-28,49,38,34,44,34,25,96,82,71,23.28,23.28,15,2,15,0.15
2013-1-29,70,55,44,56,48,41,91,79,61,23.28,23.28,11,1,11,0.00
2013-1-30,71,63,58,64,58,52,95,83,76,23.28,23.28,27,4,27,0.68
2013-1-31,65,48,33,62,36,17,92,62,40,23.28,23.27,30,8,30,0.37
2013-2-1,37,30,22,28,17,8,87,58,45,23.27,23.27,32,5,32,0.00
2013-2-2,33,26,18,29,17,8,89,68,49,23.27,23.27,15,2,15,0.00
2013-2-3,36,31,26,31,27,21,91,84,58,23.27,23.27,19,1,19,0.01
2013-2-4,39,33,28,27,21,15,66,59,52,23.27,23.27,29,3,29,0.00
2013-2-5,46,40,33,34,30,25,76,67,60,23.27,23.27,7,0,7,0.00
2013-2-6,48,41,34,34,30,26,83,67,52,23.27,23.27,22,3,22,0.00
2013-2-7,44,38,30,33,29,24,81,70,61,23.27,23.27,15,2,15,0.00
2013-2-8,44,40,36,39,34,26,90,82,62,23.27,23.27,33,5,33,0.22
2013-2-10,44,42,38,31,27,24,68,56,49,23.27,23.27,10,2,16,0.22
2013-2-11,54,46,39,51,43,31,94,90,68,23.27,22.49,12,2,12,0.22
2013-2-12,60,51,45,43,34,31,78,53,39,32.44,22.49,23,3,23,0.01
2013-2-13,49,42,36,40,34,30,90,73,59,32.45,22.49,13,2,13,0.19
2013-2-14,53,42,35,35,32,30,91,71,44,32.44,22.88,14,2,14,0.01
2013-2-15,61,46,36,41,36,32,89,70,40,32.44,32.44,26,3,26,0.09
2013-2-16,41,38,33,38,32,20,91,78,56,32.44,32.44,19,3,19,0.01
2013-2-17,33,30,26,21,16,10,68,55,44,32.44,32.44,28,8,31,0.00
2013-2-18,44,34,23,24,16,11,67,50,36,32.44,32.44,16,3,16,0.00
2013-2-19,47,41,38,42,32,22,92,70,50,32.44,32.44,18,3,20,0.08
2013-2-20,41,36,28,29,20,13,65,54,46,32.45,22.52,29,7,29,0.00
2013-2-21,41,33,26,23,18,13,64,56,46,31.70,30.05,11,6,23,0.00
2013-2-22,37,35,32,34,27,20,86,72,59,30.27,28.29,5,2,13,0.05
2013-2-23,48,41,36,44,38,33,92,89,86,0.00,40.00,5,2,11,0.06
2013-2-24,53,45,36,42,35,23,91,69,46,0.00,40.00,14,6,27,0.00
2013-2-25,49,40,32,31,27,22,76,60,46,32.02,32.02,15,2,15,0.00
2013-2-26,47,40,31,45,35,26,92,84,71,32.02,32.02,23,3,23,0.71
2013-2-27,58,49,42,46,41,36,93,74,54,32.02,32.02,13,2,13,0.01
2013-2-28,49,45,43,40,34,29,81,63,47,32.02,32.02,19,4,19,0.01
2013-3-1,46,42,38,34,31,28,70,64,54,32.02,32.02,21,5,21,0.00
2013-3-2,39,36,32,28,25,23,73,66,56,32.02,32.02,20,4,21,0.00
2013-3-3,43,36,31,25,23,20,76,60,48,32.02,32.02,23,6,23,0.00
2013-3-4,45,37,31,25,22,18,65,55,43,32.02,32.02,27,6,27,0.00
2013-3-5,53,42,33,34,26,21,84,53,32,32.02,32.02,17,2,17,0.01
2013-3-6,41,38,35,37,34,32,91,88,77,32.45,23.24,32,7,33,1.32
2013-3-7,50,44,36,34,32,30,81,65,50,32.45,23.25,29,7,29,0.00
2013-3-8,50,44,39,34,31,29,71,61,51,32.44,31.49,30,9,30,0.00
2013-3-9,62,48,38,34,31,28,69,53,33,31.49,31.49,18,3,18,0.00
2013-3-10,64,49,33,38,32,28,83,54,29,31.49,31.49,16,2,16,0.00
2013-3-11,62,53,44,52,46,38,90,79,69,31.49,31.49,15,4,15,0.00
2013-3-12,60,55,45,57,47,34,93,76,59,31.49,31.49,25,6,25,0.77
2013-3-13,52,44,36,34,30,23,79,60,39,31.49,31.49,24,4,24,0.01
2013-3-14,47,40,34,25,23,19,62,50,39,32.00,30.82,29,7,29,0.00
2013-3-15,59,46,31,38,29,22,73,52,37,31.99,31.99,19,2,19,0.00
2013-3-16,61,50,43,50,39,35,77,67,55,31.99,31.99,17,2,17,0.00
2013-3-17,44,41,36,36,34,31,84,75,63,31.99,28.95,11,1,11,0.00
2013-3-18,41,39,33,38,33,26,91,81,59,28.95,28.95,14,2,14,0.32
2013-3-19,60,48,38,42,34,18,91,64,24,28.95,28.95,27,4,27,0.00
2013-3-20,54,47,39,28,21,17,54,36,30,28.95,28.95,25,5,25,0.00
2013-3-21,44,36,31,30,21,14,80,54,42,28.95,28.95,22,6,24,0.00
2013-3-22,50,39,28,27,21,15,64,50,39,28.95,28.95,19,3,23,0.00
2013-3-23,56,44,30,31,27,22,74,52,36,28.95,28.95,21,3,21,0.00
2013-3-24,45,40,34,29,27,25,74,59,49,28.95,28.95,12,1,13,0.00
2013-3-25,41,37,34,36,34,32,91,89,85,28.95,28.95,9,2,11,0.49
2013-3-26,51,43,35,36,34,31,91,71,47,28.95,28.95,20,4,20,0.00
2013-3-27,51,45,40,35,32,29,70,60,46,28.95,28.95,27,6,27,0.00
2013-3-28,50,45,39,35,32,29,68,61,52,28.95,28.95,26,5,26,0.00
2013-3-29,58,49,42,37,34,32,71,57,41,28.95,28.95,29,3,29,0.00
2013-3-30,62,51,38,35,33,31,76,52,34,28.95,28.95,16,1,16,0.00
2013-3-31,55,50,43,51,42,33,92,76,55,28.95,28.95,14,2,14,0.00
2013-4-1,66,52,43,47,41,30,93,68,44,28.95,23.24,28,4,28,0.01
2013-4-2,52,45,38,30,22,20,58,41,31,23.27,23.27,23,5,26,0.00
2013-4-3,53,44,33,25,22,19,61,43,29,32.45,22.70,26,5,26,0.00
2013-4-4,51,41,31,38,24,20,89,54,32,32.45,23.24,16,2,16,0.07
2013-4-5,67,52,40,40,37,29,92,60,33,32.45,23.24,21,4,21,0.18
2013-4-6,59,50,41,35,28,24,65,44,31,32.44,21.75,19,4,19,0.00
2013-4-7,71,56,41,47,40,33,78,58,41,32.44,23.24,22,5,22,0.00
2013-4-8,82,69,56,55,50,45,68,52,38,32.43,23.27,15,2,15,0.00
2013-4-9,87,76,64,60,57,54,70,53,39,32.43,32.43,16,3,16,0.00
2013-4-10,92,81,69,64,60,56,65,50,38,32.43,32.43,19,3,19,0.00
2013-4-11,83,75,68,62,60,58,71,59,48,32.43,32.43,20,2,20,0.00
2013-4-14,66,66,66,57,57,57,75,75,75,0.00,40.00,6,6,16,0.00
2013-4-16,78,78,78,63,63,63,61,60,60,0.00,40.00,10,6,10,0.00
2013-4-17,80,70,64,64,60,57,80,71,57,0.00,0.00,17,3,17,0.00
2013-4-18,80,67,61,67,60,57,92,80,59,0.00,0.00,18,3,20,0.03
2013-4-19,80,69,53,68,62,49,92,81,66,32.02,0.00,28,4,28,0.95
2013-4-20,62,55,48,49,37,31,89,51,38,32.02,32.02,24,5,24,0.01
2013-4-21,57,49,42,36,31,26,68,50,35,32.02,32.02,16,2,16,0.00
2013-4-22,58,49,37,42,38,34,88,68,54,32.02,32.02,19,3,19,0.00
2013-4-23,64,54,48,48,44,40,85,70,56,32.02,32.02,14,1,14,0.00
2013-4-24,78,62,45,60,52,42,89,71,48,32.02,32.02,25,4,25,0.00
2013-4-25,66,57,48,52,39,35,70,52,33,32.02,32.02,29,4,29,0.01
2013-4-26,68,58,45,44,41,38,83,55,37,32.02,32.02,15,2,15,0.00
2013-4-27,73,60,46,48,44,40,86,57,37,32.02,32.02,12,1,12,0.00
2013-4-28,67,58,46,53,46,42,88,66,44,32.02,32.02,14,2,14,0.01
2013-4-29,61,57,55,58,54,48,93,90,67,32.02,32.02,15,2,15,0.24
2013-4-30,60,58,56,57,55,49,93,89,71,32.02,32.02,15,2,15,0.10
2013-5-1,71,61,51,51,47,42,79,61,38,32.02,23.24,19,2,19,0.00
2013-5-2,68,53,45,53,46,42,93,80,57,31.20,21.74,14,1,14,0.00
2013-5-30,89,83,77,73,70,68,74,67,59,23.27,23.27,9,1,10,0.00
2013-5-31,90,80,68,71,68,64,86,67,49,0.00,0.00,18,2,18,0.00
2013-6-1,90,81,70,73,69,65,84,68,53,0.00,0.00,15,2,15,0.00
2013-6-2,86,78,71,73,69,66,93,75,65,0.00,0.00,25,3,25,0.37
2013-6-3,84,73,67,72,68,60,94,85,63,0.00,0.00,19,1,19,0.73
2013-6-4,77,69,62,61,53,46,79,58,40,29.08,0.00,16,2,16,0.00
2013-6-5,80,69,56,61,57,53,90,68,48,32.44,23.24,14,1,14,0.00
2013-6-6,75,68,62,66,62,55,94,80,71,32.44,21.74,13,2,13,0.46
2013-6-7,71,69,66,70,68,64,96,95,92,32.02,23.81,14,1,16,1.68
2013-6-8,82,72,65,68,64,61,93,78,55,32.02,32.02,14,2,14,0.00
2013-6-9,84,74,64,73,68,62,93,80,64,32.02,32.02,12,1,12,0.00
2013-6-10,79,73,69,75,71,68,96,92,84,32.02,32.02,18,1,18,2.50
2013-6-11,85,76,67,70,67,65,95,77,59,32.02,32.02,19,2,19,0.01
2013-6-12,91,80,70,72,68,64,81,69,49,32.02,32.02,18,2,18,0.00
2013-6-13,88,78,72,75,70,68,93,80,58,32.02,23.76,20,2,20,0.01
2013-6-14,80,75,67,60,58,54,71,56,47,30.03,30.03,20,3,20,0.00
2013-6-15,84,74,63,63,60,57,81,63,47,30.03,30.03,15,2,15,0.00
2013-6-16,85,76,65,71,66,60,88,74,59,30.03,30.03,20,2,20,0.00
2013-6-17,87,80,72,73,70,67,84,74,61,30.03,30.03,11,2,11,0.00
2013-6-18,78,72,66,72,68,64,94,87,76,30.03,30.03,12,1,12,0.38
2013-6-19,78,70,64,66,64,61,94,81,64,30.03,30.03,7,1,7,0.01
2013-6-20,79,71,62,65,62,56,94,73,54,30.03,30.03,13,1,13,0.00
2013-6-21,84,70,58,65,59,55,90,70,45,30.03,30.03,11,1,11,0.00
2013-6-22,86,76,64,70,66,62,93,74,57,32.43,30.03,13,2,13,0.00
2013-6-23,86,76,70,75,70,66,94,83,66,31.67,31.67,9,1,9,1.17
2013-6-24,92,79,73,77,72,69,93,81,55,31.67,31.67,14,1,14,0.03
2013-6-25,92,82,70,76,72,66,92,73,56,31.67,31.67,26,2,26,0.00
2013-6-26,90,80,71,76,70,66,85,74,59,31.67,30.88,11,1,11,0.01
2013-6-27,81,74,70,74,71,67,93,88,78,30.88,22.51,16,2,16,0.04
2013-6-28,88,77,70,75,71,64,93,82,63,32.43,30.26,23,2,23,0.78
2013-7-1,84,79,74,75,74,72,93,85,72,23.76,23.76,13,2,13,0.16
2013-7-2,81,76,74,75,73,71,93,89,80,23.76,23.76,16,3,16,0.07
2013-7-3,86,77,72,78,73,70,95,88,76,23.76,23.76,13,2,13,0.21
2013-7-4,87,81,75,77,74,72,94,80,70,31.97,23.76,13,4,13,0.00
2013-7-5,86,86,86,75,75,75,70,70,70,31.95,31.95,7,7,7,0.00
2013-7-6,86,86,86,75,75,75,70,70,70,31.95,31.95,7,7,7,0.00
2013-7-7,86,86,86,75,75,75,70,70,70,31.95,31.95,7,7,7,0.00
2013-7-8,86,86,86,75,75,75,70,70,70,31.95,31.95,7,7,7,0.00
2013-7-9,86,81,72,77,74,68,91,78,70,32.43,22.57,10,2,10,0.00
2013-7-10,89,80,75,79,75,70,93,84,64,32.43,23.23,22,2,22,0.06
2013-7-11,87,79,74,73,72,70,91,80,61,32.43,22.48,12,2,12,0.00
2013-7-12,77,71,68,73,68,66,95,90,77,32.43,23.25,17,3,17,2.59
2013-7-13,86,77,70,76,71,68,94,83,69,31.68,27.38,5,1,11,0.00
2013-7-14,90,81,74,77,74,71,95,80,59,31.68,27.38,4,1,13,0.00
2013-7-15,95,84,73,77,74,70,92,73,54,31.68,27.38,5,1,15,0.00
2013-7-16,96,86,78,78,74,71,84,69,50,32.43,22.71,11,2,15,0.01
2013-7-17,96,85,75,78,74,71,88,71,51,31.74,21.08,12,1,12,0.00
2013-7-18,96,87,77,80,77,73,89,74,57,31.86,16.91,11,1,11,0.00
2013-7-19,96,88,80,82,78,74,84,73,60,32.11,18.61,15,2,15,0.00
2013-7-20,93,85,78,79,76,72,88,75,58,30.87,19.27,15,2,15,0.00
2013-7-21,92,81,73,76,73,70,91,77,57,30.87,20.93,11,1,11,0.01
2013-7-22,89,81,73,77,74,70,93,81,63,30.88,16.91,11,1,11,0.05
2013-7-23,88,80,73,74,72,69,94,77,57,30.88,19.42,19,2,20,0.02
2013-7-24,86,78,71,71,68,62,88,70,54,30.88,19.28,15,3,15,0.00
2013-7-25,81,73,64,65,60,55,78,64,52,30.88,19.28,17,2,17,0.00
2013-7-26,84,74,64,66,63,60,91,70,47,16.93,16.93,12,1,12,0.00
2013-7-27,85,74,68,73,69,65,93,84,65,30.88,30.85,13,2,15,0.56
2013-7-28,85,75,70,73,70,66,92,85,67,32.37,30.12,10,1,10,0.02
2013-7-29,83,74,66,70,62,58,91,68,48,30.85,16.92,14,2,15,0.00
2013-7-30,83,73,63,66,62,58,85,69,52,30.88,16.92,13,1,13,0.00
2013-7-31,80,73,66,71,67,62,93,82,67,30.85,16.17,17,1,17,0.51
2013-8-1,84,74,69,75,70,67,95,89,67,17.43,17.43,6,1,10,0.41
2013-8-2,86,77,66,69,67,64,94,74,55,30.88,17.43,14,2,14,0.01
2013-8-3,83,74,69,70,67,65,90,81,63,30.88,16.91,14,1,14,0.02
2013-8-4,82,73,66,67,62,58,93,70,48,30.88,16.93,19,3,19,0.00
2013-8-5,81,72,61,62,59,56,84,65,47,30.88,16.93,12,1,12,0.00
2013-8-6,73,70,68,68,66,62,92,86,78,30.88,16.92,9,1,9,0.02
2013-8-7,83,76,70,75,70,66,91,84,73,32.13,19.17,14,1,14,0.06
2013-8-8,85,79,74,76,74,71,91,84,74,32.14,30.84,13,2,13,0.00
2013-8-9,91,83,77,79,75,72,91,78,64,32.15,18.58,20,2,20,0.00
2013-8-10,84,78,72,73,70,65,86,76,62,30.88,16.91,11,1,11,0.01
2013-8-11,84,77,71,72,70,67,90,78,61,30.88,16.92,13,1,13,0.00
2013-8-12,90,80,71,73,71,68,93,75,53,32.36,16.92,13,1,13,0.00
2013-8-13,88,78,70,74,72,66,94,81,61,32.36,32.36,30,1,30,0.43
2013-8-14,76,69,62,69,56,51,94,65,52,32.12,19.19,20,4,23,0.00
2013-8-15,80,68,57,58,56,53,88,68,42,31.16,16.92,12,1,12,0.00
2013-8-16,80,68,58,61,58,55,93,73,49,32.12,16.92,10,1,10,0.00
2013-8-17,80,70,59,65,60,56,93,72,52,32.49,21.09,13,1,13,0.00
2013-8-18,73,69,65,66,64,61,92,85,69,32.49,30.85,9,1,9,0.17
2013-8-19,74,69,63,68,65,61,94,87,81,32.12,21.09,9,1,9,0.00
2013-8-20,87,77,66,73,69,64,94,79,59,32.12,30.09,12,1,12,0.00
2013-8-21,88,78,71,74,72,69,95,82,61,32.15,19.42,14,1,14,0.13
2013-8-22,88,80,72,73,71,68,95,75,56,30.88,16.92,13,2,13,0.00
2013-8-23,78,72,63,71,66,60,92,83,65,16.92,16.92,12,1,12,0.44
2013-8-24,84,72,61,66,62,59,94,74,49,31.40,16.93,11,1,11,0.00
2013-8-25,83,72,62,67,62,57,94,72,51,30.67,19.20,12,1,12,0.00
2013-8-26,88,75,64,68,64,58,82,69,50,32.12,16.17,14,2,14,0.00
2013-8-27,90,80,72,75,71,66,83,73,58,30.88,16.68,18,2,18,0.00
2013-8-28,80,76,74,75,72,70,93,87,78,16.98,16.98,11,0,11,0.13
2013-8-29,86,78,73,73,71,69,94,81,60,30.88,19.19,13,1,13,0.00
2013-8-30,86,77,71,74,71,67,91,80,65,16.92,16.92,13,2,13,0.00
2013-8-31,88,79,72,76,72,68,89,79,66,31.43,19.20,14,2,14,0.00
2013-9-1,91,80,69,76,72,66,93,77,57,31.92,30.88,14,1,14,0.00
2013-9-2,89,79,71,76,73,68,94,81,62,19.19,19.19,17,1,17,0.11
2013-9-3,86,78,70,74,66,59,91,68,48,19.19,19.19,19,3,19,0.00
2013-9-4,83,72,61,63,60,56,85,66,45,16.92,16.92,14,1,14,0.00
2013-9-5,86,74,62,67,62,53,89,66,50,30.88,16.92,18,2,18,0.00
2013-9-6,78,68,60,56,53,48,82,60,43,31.87,16.93,13,1,13,0.00
2013-9-7,79,68,55,66,60,53,92,77,59,16.93,16.93,14,1,14,0.00
2013-9-8,88,77,66,70,66,62,90,71,52,30.88,18.19,13,2,13,0.00
2013-9-9,79,72,66,69,61,54,86,68,59,31.40,16.92,13,2,13,0.00
2013-9-10,90,80,72,77,73,68,91,79,62,31.39,29.12,12,2,12,0.00
2013-9-11,93,82,74,78,74,71,93,78,56,30.88,28.57,16,1,16,0.00
2013-9-12,90,78,70,76,71,68,93,82,60,16.15,16.15,22,1,22,0.39
2013-9-13,78,71,63,69,61,53,94,72,47,16.91,16.91,20,3,20,0.01
2013-9-14,72,62,54,53,50,47,86,65,49,32.12,16.92,15,2,15,0.00
2013-9-15,76,64,49,60,54,47,95,73,54,30.89,16.92,13,1,13,0.00
2013-9-16,74,66,59,62,59,56,90,80,62,32.12,16.92,15,2,16,0.03
2013-9-17,71,60,51,56,49,45,91,67,42,30.86,16.92,12,1,12,0.00
2013-9-18,72,60,47,53,49,45,93,70,45,32.13,16.92,9,1,10,0.00
2013-9-19,77,65,53,61,57,51,92,75,56,32.14,22.13,13,1,13,0.00
2013-9-20,80,69,57,66,60,54,92,76,60,30.89,29.36,12,1,12,0.00
2013-9-21,76,68,62,67,62,58,94,84,68,30.89,19.20,16,2,16,0.87
2013-9-22,74,66,58,62,57,51,94,74,55,30.89,16.93,15,2,15,0.00
2013-9-23,68,60,52,51,49,46,87,68,53,30.89,16.93,14,2,14,0.00
2013-9-24,74,59,47,56,50,44,93,74,49,16.93,16.93,12,1,12,0.00
2013-9-25,76,62,51,56,51,48,93,72,40,31.72,19.20,11,1,11,0.00
2013-9-26,77,65,57,59,56,53,90,73,49,32.39,30.65,10,1,12,0.00
2013-9-27,74,64,55,61,57,52,93,81,61,32.15,19.07,13,0,13,0.00
2013-9-28,70,63,56,58,56,53,91,79,61,16.93,16.93,14,1,14,0.00
2013-9-29,76,62,51,60,55,49,95,81,57,30.89,16.93,9,0,12,0.00
2013-9-30,77,64,53,60,55,51,94,76,53,16.92,16.92,9,1,9,0.00
2013-10-1,83,69,58,65,60,54,90,75,52,31.40,16.93,12,1,13,0.00
2013-10-2,86,73,60,67,62,57,91,72,50,30.88,16.93,17,1,17,0.00
2013-10-3,84,72,62,69,64,59,92,77,58,31.92,16.16,9,1,9,0.00
2013-10-4,88,74,63,71,66,61,94,78,54,31.40,18.62,11,1,11,0.00
2013-10-5,90,77,66,71,68,64,93,76,53,31.87,30.12,12,1,12,0.00
2013-10-6,87,76,66,71,68,64,93,76,55,30.88,30.88,19,2,19,0.00
2013-10-7,75,68,59,71,63,50,94,86,68,30.88,19.11,20,2,20,0.89
2013-10-8,68,59,51,54,50,47,88,73,54,30.89,19.20,13,1,13,0.00
2013-10-9,63,58,54,55,52,49,91,81,70,16.93,16.93,13,1,13,0.22
2013-10-10,60,57,54,58,54,52,94,92,90,32.38,16.93,15,3,15,1.71
2013-10-11,63,61,57,62,59,55,96,94,92,16.17,16.17,13,3,13,2.90
2013-10-12,69,64,62,62,61,59,95,89,78,30.89,16.17,13,1,13,0.21
2013-10-13,66,62,59,60,58,55,93,87,79,19.20,19.20,14,2,14,0.06
2013-10-14,72,62,56,59,56,53,92,80,61,30.89,16.93,12,1,12,0.00
2013-10-15,74,63,52,59,54,50,95,77,45,16.92,16.92,10,1,10,0.00
2013-10-16,72,66,62,64,61,58,92,85,75,30.89,16.93,6,1,7,0.00
2013-10-17,77,68,62,67,64,59,94,84,67,30.89,16.93,19,1,19,0.00
2013-10-18,68,59,51,58,48,45,92,68,49,31.88,16.17,21,2,21,0.00
2013-10-19,65,57,48,59,53,46,93,86,68,30.90,30.86,13,1,13,0.00
2013-10-20,65,55,46,55,42,38,91,63,43,32.17,16.17,21,2,21,0.00
2013-10-21,67,55,42,50,46,40,93,74,47,19.29,16.94,12,1,12,0.00
2013-10-22,66,57,51,53,49,40,85,73,56,16.94,16.94,14,1,14,0.00
2013-10-23,60,52,46,46,42,38,91,70,49,16.94,16.94,17,2,17,0.09
2013-10-24,54,46,40,39,35,31,84,65,46,16.93,16.93,21,2,21,0.00
2013-10-25,57,46,36,39,35,31,85,66,49,18.64,18.64,20,2,20,0.00
2013-10-26,57,46,32,38,34,29,89,64,45,32.39,16.94,20,2,20,0.00
2013-10-27,63,51,41,43,40,36,86,67,47,30.90,16.93,16,1,16,0.00
2013-10-28,67,51,40,48,43,37,91,74,48,16.92,16.92,9,0,9,0.00
2013-10-29,67,53,42,49,44,40,92,75,50,30.90,16.92,7,0,7,0.00
2013-10-30,66,57,50,58,53,46,93,87,74,19.21,16.94,9,0,9,0.05
2013-10-31,70,63,55,62,58,53,94,86,75,32.38,19.21,15,1,15,0.00
2013-11-1,76,68,60,65,62,58,92,81,61,19.20,19.20,20,3,20,0.12
2013-11-2,70,61,53,59,50,42,92,69,51,19.20,19.20,20,2,20,0.00
2013-11-3,59,51,43,44,37,30,85,62,35,30.90,16.93,15,2,21,0.00
2013-11-4,49,42,35,32,29,26,76,59,46,16.93,16.93,12,1,12,0.00
2013-11-5,58,50,37,49,41,31,81,73,62,19.43,19.43,5,0,6,0.00
2013-11-6,70,60,52,57,52,48,87,77,61,32.18,19.43,13,1,13,0.00
2013-11-7,63,56,46,58,49,29,94,81,50,30.89,21.18,31,3,31,0.02
2013-11-8,54,45,37,34,31,29,76,57,42,16.94,16.94,16,2,23,0.00
2013-11-9,56,45,32,36,32,28,92,63,44,30.91,16.94,15,2,15,0.00
2013-11-10,66,51,39,43,35,31,79,56,37,22.99,22.99,29,3,29,0.00
2013-11-11,59,50,39,38,35,30,75,56,43,16.94,16.94,14,2,14,0.00
2013-11-12,54,43,33,41,28,20,69,55,46,30.90,19.07,27,5,27,0.00
2013-11-13,34,33,31,23,22,21,69,65,62,16.92,16.92,12,1,12,0.00
2013-11-14,57,40,29,30,24,21,76,56,32,16.94,16.94,10,1,10,0.00
2013-11-15,61,41,32,39,32,29,86,71,40,16.94,16.94,5,0,10,0.00
2013-11-16,54,51,47,52,48,44,96,91,87,0.00,40.00,2,0,5,0.33
2013-11-17,64,58,53,59,55,51,94,90,84,0.00,40.00,5,1,13,0.00
2013-11-18,70,62,52,62,45,33,93,59,29,0.00,40.00,10,4,22,0.18
2013-11-19,52,46,41,34,31,29,65,55,49,30.90,30.89,12,5,23,0.00
2013-11-20,50,41,35,33,29,27,82,63,46,0.00,40.00,5,1,13,0.00
2013-11-21,54,45,33,42,37,30,88,74,62,19.43,19.21,4,0,7,0.00
2013-11-22,65,56,47,56,49,41,86,78,68,30.90,21.19,17,1,17,0.00
2013-11-23,60,47,34,52,32,18,76,57,43,21.19,21.19,27,7,27,0.00
2013-11-24,34,30,26,18,12,9,57,48,42,30.92,21.19,30,7,30,0.00
2013-11-25,38,31,23,20,15,11,68,51,38,18.22,18.22,16,2,16,0.00
2013-11-26,47,39,35,45,32,19,94,78,49,30.91,16.95,19,2,19,1.52
2013-11-27,42,39,31,39,34,18,93,81,58,16.94,16.94,27,6,28,0.60
2013-11-28,40,34,28,28,21,17,77,61,49,16.94,16.94,22,3,22,0.00
2013-11-29,44,36,27,28,26,23,85,66,51,31.56,16.94,18,2,18,0.00
2013-11-30,42,36,27,31,26,21,83,68,54,31.56,30.51,10,0,10,0.00
2013-12-1,52,40,28,36,31,24,92,71,51,30.91,17.00,6,0,6,0.00
2013-12-2,51,47,43,42,39,36,78,75,71,19.22,19.22,5,0,5,0.00
2013-12-3,59,49,42,44,40,36,85,73,57,30.90,16.94,10,1,10,0.00
2013-12-4,59,52,43,52,46,39,87,81,71,30.90,16.94,7,0,7,0.00
2013-12-5,70,61,55,62,57,52,93,87,72,30.90,30.90,16,2,16,0.00
2013-12-6,64,52,41,63,50,39,94,92,89,30.90,16.17,18,4,18,0.72
2013-12-7,44,40,34,38,33,25,91,76,64,30.90,30.90,22,5,22,0.17
2013-12-8,35,33,31,33,28,24,92,82,69,32.40,16.94,12,1,12,0.38
2013-12-9,39,35,34,37,33,32,93,92,91,30.88,19.44,6,0,7,0.92
2013-12-10,40,35,29,36,32,24,94,87,67,31.40,21.64,17,1,17,0.29
2013-12-11,44,33,26,28,25,22,92,75,49,30.88,16.93,8,0,8,0.06
2013-12-12,35,31,27,26,20,16,85,63,48,30.92,16.93,22,3,22,0.00
2013-12-13,43,36,26,29,22,16,79,58,42,30.92,16.94,10,1,13,0.00
2013-12-14,43,39,34,38,34,27,92,81,70,17.44,17.44,10,1,12,0.45
2013-12-15,49,40,33,41,33,25,92,77,57,31.39,16.94,23,3,23,0.00
2013-12-16,41,38,34,31,29,27,76,69,61,18.20,18.20,8,1,11,0.00
2013-12-17,43,39,37,38,33,29,87,79,72,32.40,16.94,8,1,8,0.00
2013-12-18,44,37,31,34,28,25,91,71,53,30.91,16.94,21,2,21,0.01
2013-12-19,61,46,30,38,32,24,85,61,40,32.28,16.94,15,1,15,0.00
2013-12-20,62,54,46,50,40,33,74,58,50,32.28,29.14,12,2,12,0.00
2013-12-21,72,63,55,62,54,46,84,73,62,30.90,29.14,21,4,21,0.00
2013-12-22,72,65,62,65,61,59,93,87,76,32.38,16.93,22,4,22,0.24
2013-12-23,64,56,41,62,52,31,95,85,67,30.90,30.89,24,4,24,0.70
2013-12-24,42,36,26,32,24,12,70,60,47,30.90,30.90,23,6,24,0.00
2013-12-25,35,29,23,23,17,13,78,61,47,18.55,18.55,14,2,14,0.00
2013-12-26,48,35,26,31,26,21,86,69,49,19.44,19.44,11,1,11,0.00
2013-12-27,51,38,29,30,27,22,80,64,42,16.94,16.94,11,1,11,0.00
2013-12-28,58,44,30,36,31,26,84,61,41,19.22,19.22,12,1,12,0.00
2013-12-29,50,47,43,47,42,33,93,83,56,19.16,19.16,14,2,14,1.25
2013-12-30,48,41,37,41,34,25,92,77,64,19.34,19.34,20,2,20,0.00
2013-12-31,48,38,33,32,26,21,73,61,49,16.59,16.59,27,3,27,0.00
2014-1-1,48,39,29,35,29,21,84,68,53,19.22,19.22,13,1,13,0.00
2014-1-2,42,36,33,36,33,29,92,87,78,16.88,16.88,12,1,12,0.07